This is the latest recevied weather packets stored in our database for station/object KB1JDX. If no packets are shown the sender has not sent any weather packets the latest 10 day(s).
| Time | Temp. | Humidity | Pressure | Rain* | Wind** | Luminosity | Snow |
|---|---|---|---|---|---|---|---|
| 1787885536 | 20.56° C | 100% | 1015.9 hPa | 0 mm | 0 m/s | - | - |
| 1787885473 | 20.56° C | 100% | 1015.9 hPa | 0 mm | 0 m/s | - | - |
| 1787884576 | 21.11° C | 100% | 1015.8 hPa | 0 mm | 0 m/s | - | - |
| 1787884273 | 21.11° C | 100% | 1016 hPa | 0 mm | 0 m/s | - | - |
| 1787884096 | 21.11° C | 100% | 1016.1 hPa | 0 mm | 0 m/s | - | - |
| 1787883856 | 21.11° C | 100% | 1016.1 hPa | 0 mm | 0 m/s | - | - |
| 1787883736 | 21.11° C | 100% | 1016.1 hPa | 0 mm | 0 m/s | - | - |
| 1787881094 | 21.67° C | 100% | 1016.4 hPa | 0 mm | 0 m/s | - | - |
| 1787879894 | 21.67° C | 100% | 1016.3 hPa | 0 mm | 0 m/s | - | - |
| 1787879827 | 21.67° C | 100% | 1016.3 hPa | 0 mm | 0 m/s | - | - |
| 1787877494 | 22.22° C | 100% | 1016.2 hPa | 0 mm | 0 m/s | - | - |
| 1787876294 | 22.22° C | 100% | 1015.9 hPa | 0 mm | 0 m/s | - | - |
| 1787876227 | 22.78° C | 100% | 1015.9 hPa | 0 mm | 0 m/s | - | - |
| 1787875095 | 22.78° C | 100% | 1015.8 hPa | 0 mm | 0 m/s | - | - |
| 1787872696 | 23.33° C | 100% | 1015.3 hPa | 0 mm | 0 m/s | - | - |
| 1787872627 | 23.33° C | 100% | 1015.3 hPa | 0 mm | 0 m/s | - | - |
| 1787871495 | 23.89° C | 100% | 1015.3 hPa | 0 mm | 0 m/s | - | - |
| 1787870294 | 23.89° C | 100% | 1015.5 hPa | 0 mm | 0 m/s | - | - |
| 1787869095 | 23.89° C | 4% | 1015.6 hPa | 0 mm | 0 m/s | - | - |
| 1787869027 | 23.89° C | 5% | 1015.7 hPa | 0 mm | 0 m/s | - | - |
| 1787867894 | 23.89° C | 9% | 1015.8 hPa | 0 mm | 0 m/s | - | - |
| 1787866694 | 23.89° C | 20% | 1016.2 hPa | 0 mm | 2.24 m/s, 234° | - | - |
| 1787865494 | 24.44° C | 28% | 1016.3 hPa | 0 mm | 0 m/s | - | - |
| 1787865427 | 24.44° C | 29% | 1016.3 hPa | 0 mm | 0 m/s | - | - |
| 1787863095 | 24.44° C | 37% | 1016.5 hPa | 0 mm | 0 m/s | - | - |
* Rain latest hour (hover to see other rain measurements)
** Current wind speed in m/s (hover to see current wind gust speed)